TimeCST,TemperatureF,Dew PointF,Humidity,Sea Level PressureIn,VisibilityMPH,Wind Direction,Wind SpeedMPH,Gust SpeedMPH,PrecipitationIn,Events,Conditions,WindDirDegrees,DateUTC
12:53 AM,42.1,39.9,92,29.73,10.0,ENE,3.5,-,N/A,,Clear,70,2012-12-17 06:53:00
1:53 AM,42.1,39.9,92,29.72,10.0,Calm,Calm,-,N/A,,Mostly Cloudy,0,2012-12-17 07:53:00
2:53 AM,41.0,39.9,96,29.72,10.0,Calm,Calm,-,N/A,,Overcast,0,2012-12-17 08:53:00
3:53 AM,39.9,37.9,93,29.69,8.0,ESE,4.6,-,N/A,,Partly Cloudy,120,2012-12-17 09:53:00
4:15 AM,37.9,37.0,97,29.69,1.5,Calm,Calm,-,N/A,,Clear,0,2012-12-17 10:15:00
4:26 AM,37.9,37.0,97,29.70,3.0,Calm,Calm,-,N/A,,Clear,0,2012-12-17 10:26:00
4:36 AM,37.9,37.9,100,29.70,1.8,SW,3.5,-,N/A,,Partly Cloudy,230,2012-12-17 10:36:00
4:45 AM,37.9,37.0,97,29.69,4.0,Calm,Calm,-,N/A,,Clear,0,2012-12-17 10:45:00
4:53 AM,37.9,37.0,97,29.69,7.0,Calm,Calm,-,N/A,,Partly Cloudy,0,2012-12-17 10:53:00
5:53 AM,36.0,36.0,100,29.70,4.0,Calm,Calm,-,N/A,,Mostly Cloudy,0,2012-12-17 11:53:00
6:13 AM,36.0,35.1,97,29.72,2.0,Calm,Calm,-,N/A,,Mostly Cloudy,0,2012-12-17 12:13:00
6:23 AM,36.0,35.1,97,29.72,7.0,Calm,Calm,-,N/A,,Scattered Clouds,0,2012-12-17 12:23:00
6:47 AM,35.6,35.6,100,29.73,1.8,Calm,Calm,-,N/A,,Mostly Cloudy,0,2012-12-17 12:47:00
6:53 AM,35.1,34.0,96,29.73,1.2,Calm,Calm,-,N/A,,Mostly Cloudy,0,2012-12-17 12:53:00
7:03 AM,36.0,35.1,97,29.73,3.0,Calm,Calm,-,N/A,,Partly Cloudy,0,2012-12-17 13:03:00
7:14 AM,35.1,35.1,100,29.74,1.5,Calm,Calm,-,N/A,,Partly Cloudy,0,2012-12-17 13:14:00
7:22 AM,35.1,34.0,96,29.74,0.5,Calm,Calm,-,N/A,Fog,Fog,0,2012-12-17 13:22:00
7:49 AM,33.8,33.8,100,29.75,0.2,SW,3.5,-,N/A,Fog,Fog,230,2012-12-17 13:49:00
7:53 AM,34.0,34.0,100,29.75,0.5,SW,3.5,-,N/A,Fog,Fog,230,2012-12-17 13:53:00
7:57 AM,35.1,34.0,96,29.75,3.0,SW,4.6,-,N/A,,Scattered Clouds,230,2012-12-17 13:57:00
8:53 AM,44.1,41.0,89,29.77,10.0,West,5.8,-,N/A,,Clear,260,2012-12-17 14:53:00
9:53 AM,51.1,41.0,68,29.81,7.0,WNW,8.1,-,N/A,,Clear,290,2012-12-17 15:53:00
10:53 AM,54.0,37.9,55,29.80,9.0,WNW,9.2,-,N/A,,Clear,290,2012-12-17 16:53:00
11:53 AM,57.9,37.9,47,29.80,10.0,West,9.2,-,N/A,,Clear,270,2012-12-17 17:53:00
12:53 PM,60.1,37.0,42,29.79,10.0,WNW,11.5,-,N/A,,Clear,290,2012-12-17 18:53:00
1:53 PM,61.0,35.1,38,29.78,10.0,WNW,13.8,19.6,N/A,,Clear,300,2012-12-17 19:53:00
2:53 PM,62.1,33.1,34,29.77,10.0,NW,11.5,17.3,N/A,,Clear,310,2012-12-17 20:53:00
3:53 PM,61.0,32.0,34,29.78,10.0,West,9.2,-,N/A,,Clear,280,2012-12-17 21:53:00
6:53 PM,43.0,33.1,68,29.83,10.0,Calm,Calm,-,N/A,,Clear,0,2012-12-18 00:53:00
7:53 PM,37.9,32.0,79,29.86,10.0,Calm,Calm,-,N/A,,Clear,0,2012-12-18 01:53:00
8:53 PM,36.0,32.0,86,29.87,10.0,Calm,Calm,-,N/A,,Clear,0,2012-12-18 02:53:00
9:53 PM,36.0,32.0,86,29.87,10.0,Calm,Calm,-,N/A,,Clear,0,2012-12-18 03:53:00
10:53 PM,33.1,30.0,89,29.87,10.0,Calm,Calm,-,N/A,,Clear,0,2012-12-18 04:53:00
11:53 PM,32.0,28.9,88,29.87,10.0,Calm,Calm,-,N/A,,Clear,0,2012-12-18 05:53:00